Weather History for Jackson, MS

Change the Weather History Date:

Monday, January 13, 2014

  Actual Average Record
Temperature  
Mean Temperature 53 °F 45 °F  
Max Temperature 60 °F 56 °F 82 °F (1972)
Min Temperature 45 °F 35 °F 4 °F (1918)
Degree Days  
Heating Degree Days 12 20  
Month to date heating degree days 297 260  
Since 1 July heating degree days 1319 1210  
Cooling Degree Days 0 0  
Month to date cooling degree days 0 0  
Year to date cooling degree days 0 0  
Growing Degree Days 3 (Base 50)    
Moisture  
Dew Point 51 °F    
Average Humidity 89    
Maximum Humidity 100    
Minimum Humidity 77    
Precipitation  
Precipitation 0.43 in 0.15 in 1.97 in (1947)
Month to date precipitation 1.54 1.93  
Year to date precipitation 1.54 1.93  
Sea Level Pressure  
Sea Level Pressure 29.92 in    
Wind  
Wind Speed 7 mph (South)    
Max Wind Speed 15 mph    
Max Gust Speed 21 mph    
Visibility 9 miles    
Events Rain    
T = Trace of Precipitation, MM = Missing Value Source: NWS Daily Summary

Daily Weather History Graph

Daily Weather History Graph

Search for Another Location

Airport:

Trip Planner

Search our weather history database for the weather conditions in past years. The results will help you decide how hot, cold, wet, or windy it might be!

Date:

Astronomy

Jan. 13, 2014 Rise Set
Actual Time 7:02 AM CST 5:16 PM CST
Civil Twilight 6:35 AM CST 5:42 PM CST
Nautical Twilight 6:05 AM CST 6:13 PM CST
Astronomical Twilight 5:35 AM CST 6:42 PM CST
Moon 3:30 PM CST (1/13) 4:51 AM CST (1/13)
Length of Visible Light 11h 07m
Length of Day
10h 14m
Waxing Gibbous, 95% of the Moon is Illuminated
Jan 13
Waxing Gibbous
Jan 15
Full
Jan 23
Last Quarter
Jan 30
New
Feb 6
First Quarter

Hourly Weather History & Observations

Time (CST) Temp. Windchill Dew Point Humidity Pressure Visibility Wind Dir Wind Speed Gust Speed Precip Events Conditions
12:54 AM 53.1 °F - 36.0 °F 52% 30.03 in 10.0 mi South 9.2 mph - 0.00 in   Overcast
1:54 AM 53.1 °F - 42.1 °F 66% 30.03 in 10.0 mi South 11.5 mph - 0.00 in Rain Light Rain
2:54 AM 48.9 °F - 46.9 °F 93% 30.02 in 10.0 mi Calm Calm - 0.10 in Rain Light Rain
3:54 AM 48.0 °F - 46.0 °F 93% 30.02 in 10.0 mi SSE 3.5 mph - 0.00 in   Partly Cloudy
4:54 AM 50.0 °F - 46.0 °F 86% 30.01 in 10.0 mi SSE 5.8 mph - N/A   Mostly Cloudy
5:54 AM 51.1 °F - 48.0 °F 89% 29.96 in 10.0 mi SE 5.8 mph - 0.03 in Rain Light Rain
6:54 AM 51.1 °F - 48.9 °F 92% 29.96 in 9.0 mi SE 3.5 mph - 0.01 in Rain Light Rain
7:29 AM 51.8 °F - 48.2 °F 88% 30.01 in 10.0 mi West 8.1 mph - 0.02 in Rain Light Rain
7:54 AM 51.1 °F - 50.0 °F 96% 30.02 in 5.0 mi West 4.6 mph - 0.04 in Rain Rain
8:07 AM 51.8 °F - 48.2 °F 88% 30.02 in 6.0 mi Calm Calm - 0.01 in Rain Light Rain
8:24 AM 51.8 °F - 48.2 °F 88% 30.01 in 1.8 mi SE 5.8 mph - 0.03 in Rain Heavy Rain
8:36 AM 51.8 °F - 50.0 °F 94% 30.01 in 3.0 mi SE 6.9 mph - 0.17 in Rain Light Rain
8:54 AM 51.1 °F - 50.0 °F 96% 29.99 in 7.0 mi SSE 9.2 mph - 0.20 in Rain Light Rain
9:54 AM 54.0 °F - 52.0 °F 93% 29.94 in 9.0 mi SE 10.4 mph - 0.04 in Rain Light Rain
10:54 AM 55.0 °F - 53.1 °F 93% 29.92 in 10.0 mi South 5.8 mph - 0.01 in   Overcast
11:29 AM 57.2 °F - 53.6 °F 88% 29.89 in 10.0 mi South 6.9 mph - 0.00 in Rain Light Rain
11:54 AM 57.9 °F - 54.0 °F 87% 29.86 in 10.0 mi SSE 9.2 mph - 0.00 in   Overcast
12:35 PM 57.2 °F - 53.6 °F 88% 29.86 in 10.0 mi SSE 13.8 mph - N/A   Overcast
12:54 PM 57.9 °F - 54.0 °F 87% 29.84 in 10.0 mi South 11.5 mph - N/A   Overcast
1:06 PM 57.2 °F - 53.6 °F 88% 29.83 in 10.0 mi SSE 10.4 mph - 0.00 in Rain Light Rain
1:42 PM 59.0 °F - 55.4 °F 88% 29.83 in 10.0 mi South 8.1 mph - 0.00 in   Overcast
1:54 PM 59.0 °F - 55.9 °F 90% 29.82 in 10.0 mi South 10.4 mph - 0.00 in   Overcast
2:54 PM 59.0 °F - 55.9 °F 90% 29.82 in 10.0 mi South 6.9 mph - N/A   Overcast
3:33 PM 60.8 °F - 57.2 °F 88% 29.83 in 10.0 mi SSW 6.9 mph - N/A   Overcast
3:45 PM 60.8 °F - 57.2 °F 88% 29.83 in 10.0 mi SSW 10.4 mph - N/A   Overcast
3:54 PM 60.1 °F - 57.0 °F 90% 29.83 in 10.0 mi South 6.9 mph - N/A   Overcast
4:12 PM 59.0 °F - 57.2 °F 94% 29.84 in 9.0 mi SSW 5.8 mph - 0.00 in Rain Light Rain
4:54 PM 59.0 °F - 57.0 °F 93% 29.84 in 10.0 mi SW 3.5 mph - 0.00 in   Overcast
5:01 PM 59.0 °F - 57.2 °F 94% 29.84 in 10.0 mi Calm Calm - N/A   Overcast
5:54 PM 55.9 °F - 55.0 °F 97% 29.86 in 6.0 mi South 3.5 mph - N/A   Mostly Cloudy
6:20 PM 55.4 °F - 55.4 °F 100% 29.87 in 6.0 mi SSW 3.5 mph - N/A   Mostly Cloudy
6:54 PM 54.0 °F - 54.0 °F 100% 29.87 in 6.0 mi South 4.6 mph - N/A   Scattered Clouds
7:01 PM 53.6 °F - 53.6 °F 100% 29.88 in 5.0 mi Calm Calm - N/A   Scattered Clouds
7:44 PM 57.2 °F - 53.6 °F 88% 29.91 in 10.0 mi NW 12.7 mph 18.4 mph N/A   Mostly Cloudy
7:54 PM 55.9 °F - 52.0 °F 87% 29.91 in 10.0 mi WNW 10.4 mph 20.7 mph N/A   Mostly Cloudy
8:54 PM 55.0 °F - 48.0 °F 77% 29.94 in 10.0 mi NW 4.6 mph - N/A   Scattered Clouds
9:54 PM 52.0 °F - 46.9 °F 83% 29.96 in 10.0 mi WNW 4.6 mph - N/A   Scattered Clouds
10:54 PM 46.4 °F 44.3 °F 44.6 °F 93% 29.98 in 6.0 mi West 4.6 mph - N/A   Partly Cloudy
11:54 PM 51.1 °F - 48.0 °F 89% 29.99 in 10.0 mi WNW 6.9 mph - N/A   Clear